Time,TemperatureF,DewpointF,PressureIn,WindDirection,WindDirectionDegrees,WindSpeedMPH,WindSpeedGustMPH,Humidity,HourlyPrecipIn,Conditions,Clouds,dailyrainin,SoftwareType,DateUTC
2013-05-20 00:01:00,48.9,19.6,30.23,NW,315,0.0,0.0,31,0.00,,,0.00,WUHU21623XXSP,2013-05-20 07:01:00,
2013-05-20 00:10:00,48.4,19.8,30.23,NNW,337,0.0,0.0,32,0.00,,,0.00,WUHU21623XXSP,2013-05-20 07:10:00,
2013-05-20 00:15:00,48.4,19.8,30.23,NW,315,0.0,0.0,32,0.00,,,0.00,WUHU21623XXSP,2013-05-20 07:15:00,
2013-05-20 00:21:00,47.8,19.5,30.23,NNW,337,0.0,0.0,32,0.00,,,0.00,WUHU21623XXSP,2013-05-20 07:21:00,
2013-05-20 00:26:00,47.5,19.2,30.23,West,270,0.0,0.0,32,0.00,,,0.00,WUHU21623XXSP,2013-05-20 07:26:00,
2013-05-20 00:31:00,47.5,19.0,30.23,NW,315,0.0,0.0,32,0.00,,,0.00,WUHU21623XXSP,2013-05-20 07:31:00,
2013-05-20 00:36:00,47.3,19.5,30.23,SE,135,0.0,0.0,33,0.00,,,0.00,WUHU21623XXSP,2013-05-20 07:36:00,
2013-05-20 00:41:00,47.1,19.3,30.23,SSE,157,0.0,0.0,34,0.00,,,0.00,WUHU21623XXSP,2013-05-20 07:41:00,
2013-05-20 00:47:00,47.1,20.0,30.23,NE,45,0.0,0.0,34,0.00,,,0.00,WUHU21623XXSP,2013-05-20 07:47:00,
2013-05-20 00:53:00,46.9,19.9,30.24,NE,45,0.0,0.0,34,0.00,,,0.00,WUHU21623XXSP,2013-05-20 07:53:00,
2013-05-20 00:58:00,46.9,19.9,30.23,NNE,22,0.0,0.0,34,0.00,,,0.00,WUHU21623XXSP,2013-05-20 07:58:00,
2013-05-20 01:03:00,46.8,19.9,30.23,WSW,247,0.0,0.0,34,0.00,,,0.00,WUHU21623XXSP,2013-05-20 08:03:00,
2013-05-20 01:10:00,46.6,19.5,30.23,NNE,22,0.0,0.0,34,0.00,,,0.00,WUHU21623XXSP,2013-05-20 08:10:00,
2013-05-20 01:15:00,46.6,19.5,30.23,NE,45,0.0,0.0,34,0.00,,,0.00,WUHU21623XXSP,2013-05-20 08:15:00,
2013-05-20 01:20:00,46.6,20.2,30.24,NNE,22,0.0,0.0,35,0.00,,,0.00,WUHU21623XXSP,2013-05-20 08:20:00,
2013-05-20 01:25:00,46.2,20.2,30.24,NE,45,0.0,0.0,35,0.00,,,0.00,WUHU21623XXSP,2013-05-20 08:25:00,
2013-05-20 01:30:00,46.2,19.9,30.23,North,0,0.0,0.0,35,0.00,,,0.00,WUHU21623XXSP,2013-05-20 08:30:00,
2013-05-20 01:36:00,46.2,20.5,30.23,NW,315,0.0,0.0,36,0.00,,,0.00,WUHU21623XXSP,2013-05-20 08:36:00,
2013-05-20 01:41:00,46.2,20.5,30.23,NNW,337,0.0,0.0,36,0.00,,,0.00,WUHU21623XXSP,2013-05-20 08:41:00,
2013-05-20 01:46:00,46.2,21.2,30.23,NNW,337,0.0,0.0,37,0.00,,,0.00,WUHU21623XXSP,2013-05-20 08:46:00,
2013-05-20 01:51:00,46.2,21.2,30.23,NNW,337,0.0,0.0,37,0.00,,,0.00,WUHU21623XXSP,2013-05-20 08:51:00,
2013-05-20 01:56:00,46.2,21.2,30.23,South,180,0.0,0.0,37,0.00,,,0.00,WUHU21623XXSP,2013-05-20 08:56:00,
2013-05-20 02:01:00,46.2,21.2,30.23,South,180,0.0,0.0,37,0.00,,,0.00,WUHU21623XXSP,2013-05-20 09:01:00,
2013-05-20 02:10:00,46.0,20.4,30.23,SSE,157,0.0,0.0,36,0.00,,,0.00,WUHU21623XXSP,2013-05-20 09:10:00,
2013-05-20 02:15:00,46.0,20.4,30.23,SSE,157,0.0,0.0,36,0.00,,,0.00,WUHU21623XXSP,2013-05-20 09:15:00,
2013-05-20 02:20:00,45.9,20.2,30.23,SW,225,0.0,0.0,36,0.00,,,0.00,WUHU21623XXSP,2013-05-20 09:20:00,
2013-05-20 02:25:00,45.7,20.0,30.23,SW,225,0.0,0.0,36,0.00,,,0.00,WUHU21623XXSP,2013-05-20 09:25:00,
2013-05-20 02:30:00,45.5,20.6,30.23,SW,225,0.0,0.0,37,0.00,,,0.00,WUHU21623XXSP,2013-05-20 09:30:00,
2013-05-20 02:35:00,45.1,20.2,30.23,SSW,202,0.0,0.0,37,0.00,,,0.00,WUHU21623XXSP,2013-05-20 09:35:00,
2013-05-20 02:40:00,44.8,19.9,30.22,SSW,202,0.0,0.0,37,0.00,,,0.00,WUHU21623XXSP,2013-05-20 09:40:00,
2013-05-20 02:47:00,44.2,19.4,30.22,SSE,157,0.0,0.0,37,0.00,,,0.00,WUHU21623XXSP,2013-05-20 09:47:00,
2013-05-20 02:53:00,43.7,18.9,30.23,SE,135,0.0,0.0,37,0.00,,,0.00,WUHU21623XXSP,2013-05-20 09:53:00,
2013-05-20 02:58:00,43.7,18.9,30.23,SE,135,0.0,0.0,37,0.00,,,0.00,WUHU21623XXSP,2013-05-20 09:58:00,
2013-05-20 03:06:00,43.2,19.1,30.23,NNE,22,0.0,0.0,38,0.00,,,0.00,WUHU21623XXSP,2013-05-20 10:06:00,
2013-05-20 03:11:00,43.0,18.9,30.23,NE,45,0.0,0.0,38,0.00,,,0.00,WUHU21623XXSP,2013-05-20 10:11:00,
2013-05-20 03:19:00,42.4,18.6,30.23,NNE,22,0.0,0.0,38,0.00,,,0.00,WUHU21623XXSP,2013-05-20 10:19:00,
2013-05-20 03:29:00,42.1,18.1,30.23,NE,45,0.0,0.0,38,0.00,,,0.00,WUHU21623XXSP,2013-05-20 10:29:00,
2013-05-20 03:34:00,41.9,18.6,30.23,NE,45,0.0,0.0,39,0.00,,,0.00,WUHU21623XXSP,2013-05-20 10:34:00,
2013-05-20 03:47:00,41.4,18.2,30.23,SSE,157,0.0,0.0,39,0.00,,,0.00,WUHU21623XXSP,2013-05-20 10:47:00,
2013-05-20 03:53:00,41.2,18.0,30.23,SSW,202,0.0,0.0,39,0.00,,,0.00,WUHU21623XXSP,2013-05-20 10:53:00,
2013-05-20 03:58:00,41.0,17.9,30.23,South,180,0.0,0.0,39,0.00,,,0.00,WUHU21623XXSP,2013-05-20 10:58:00,
2013-05-20 04:03:00,41.0,17.9,30.23,South,180,0.0,0.0,39,0.00,,,0.00,WUHU21623XXSP,2013-05-20 11:03:00,
2013-05-20 04:08:00,40.6,18.2,30.23,ENE,67,0.0,0.0,40,0.00,,,0.00,WUHU21623XXSP,2013-05-20 11:08:00,
2013-05-20 04:21:00,40.1,17.7,30.24,NE,45,0.0,0.0,40,0.00,,,0.00,WUHU21623XXSP,2013-05-20 11:21:00,
2013-05-20 04:27:00,39.9,18.0,30.24,NE,45,0.0,0.0,41,0.00,,,0.00,WUHU21623XXSP,2013-05-20 11:27:00,
2013-05-20 04:34:00,39.6,17.7,30.24,NW,315,0.0,0.0,41,0.00,,,0.00,WUHU21623XXSP,2013-05-20 11:34:00,
2013-05-20 04:55:00,38.8,17.6,30.23,SSE,157,0.0,0.0,42,0.00,,,0.00,WUHU21623XXSP,2013-05-20 11:55:00,
2013-05-20 05:00:00,38.8,17.6,30.23,SSE,157,0.0,0.0,42,0.00,,,0.00,WUHU21623XXSP,2013-05-20 12:00:00,
2013-05-20 05:06:00,38.3,17.3,30.24,East,90,0.0,0.0,42,0.00,,,0.00,WUHU21623XXSP,2013-05-20 12:06:00,
2013-05-20 05:11:00,38.1,17.0,30.24,ENE,67,0.0,0.0,42,0.00,,,0.00,WUHU21623XXSP,2013-05-20 12:11:00,
2013-05-20 05:33:00,37.4,16.8,30.25,SSE,157,0.0,0.0,43,0.00,,,0.00,WUHU21623XXSP,2013-05-20 12:33:00,
2013-05-20 05:40:00,37.2,16.7,30.24,SSE,157,0.0,0.0,43,0.00,,,0.00,WUHU21623XXSP,2013-05-20 12:40:00,
2013-05-20 05:48:00,36.9,16.9,30.24,SSE,157,0.0,0.0,44,0.00,,,0.00,WUHU21623XXSP,2013-05-20 12:48:00,
2013-05-20 05:53:00,36.7,16.7,30.24,SSE,157,0.0,0.0,44,0.00,,,0.00,WUHU21623XXSP,2013-05-20 12:53:00,
2013-05-20 05:58:00,36.7,16.7,30.24,SSE,157,0.0,0.0,44,0.00,,,0.00,WUHU21623XXSP,2013-05-20 12:58:00,
2013-05-20 06:04:00,36.3,16.4,30.24,SE,135,0.0,0.0,44,0.00,,,0.00,WUHU21623XXSP,2013-05-20 13:04:00,
2013-05-20 06:27:00,36.1,17.8,30.25,NE,45,0.0,0.0,47,0.00,,,0.00,WUHU21623XXSP,2013-05-20 13:27:00,
2013-05-20 06:44:00,36.9,18.9,30.25,SSE,157,0.0,0.0,48,0.00,,,0.00,WUHU21623XXSP,2013-05-20 13:44:00,
2013-05-20 06:51:00,37.2,19.3,30.25,West,270,0.0,0.0,48,0.00,,,0.00,WUHU21623XXSP,2013-05-20 13:51:00,
2013-05-20 06:56:00,37.6,20.1,30.25,WNW,292,0.0,0.0,49,0.00,,,0.00,WUHU21623XXSP,2013-05-20 13:56:00,
2013-05-20 07:01:00,37.8,20.3,30.25,WNW,292,0.0,0.0,49,0.00,,,0.00,WUHU21623XXSP,2013-05-20 14:01:00,
2013-05-20 07:08:00,39.0,21.9,30.25,WNW,292,0.0,0.0,50,0.00,,,0.00,WUHU21623XXSP,2013-05-20 14:08:00,
2013-05-20 07:14:00,39.9,23.2,30.25,WNW,292,0.0,0.0,51,0.00,,,0.00,WUHU21623XXSP,2013-05-20 14:14:00,
2013-05-20 07:29:00,41.7,24.9,30.25,WNW,292,0.0,0.0,51,0.00,,,0.00,WUHU21623XXSP,2013-05-20 14:29:00,
2013-05-20 07:35:00,42.3,25.4,30.25,WNW,292,0.0,0.0,51,0.00,,,0.00,WUHU21623XXSP,2013-05-20 14:35:00,
2013-05-20 07:41:00,42.6,25.8,30.25,WNW,292,0.0,0.0,51,0.00,,,0.00,WUHU21623XXSP,2013-05-20 14:41:00,
2013-05-20 07:48:00,43.5,26.2,30.25,WNW,292,0.0,0.0,50,0.00,,,0.00,WUHU21623XXSP,2013-05-20 14:48:00,
2013-05-20 07:57:00,44.4,27.0,30.25,West,270,0.0,0.0,50,0.00,,,0.00,WUHU21623XXSP,2013-05-20 14:57:00,
2013-05-20 08:02:00,45.0,27.3,30.25,West,270,0.0,0.0,50,0.00,,,0.00,WUHU21623XXSP,2013-05-20 15:02:00,
2013-05-20 08:10:00,45.7,27.0,30.25,WSW,247,0.0,0.0,48,0.00,,,0.00,WUHU21623XXSP,2013-05-20 15:10:00,
2013-05-20 08:18:00,46.2,27.5,30.25,North,0,0.0,0.0,48,0.00,,,0.00,WUHU21623XXSP,2013-05-20 15:18:00,
2013-05-20 08:36:00,47.7,27.7,30.24,NNW,337,0.0,0.0,46,0.00,,,0.00,WUHU21623XXSP,2013-05-20 15:36:00,
2013-05-20 08:48:00,48.7,28.2,30.24,WNW,292,0.0,0.0,45,0.00,,,0.00,WUHU21623XXSP,2013-05-20 15:48:00,
2013-05-20 09:01:00,49.8,28.7,30.24,SW,225,0.0,0.0,44,0.00,,,0.00,WUHU21623XXSP,2013-05-20 16:01:00,
2013-05-20 09:18:00,51.1,28.7,30.23,NNE,22,0.0,0.0,42,0.00,,,0.00,WUHU21623XXSP,2013-05-20 16:18:00,
2013-05-20 09:27:00,51.8,29.3,30.23,SW,225,0.0,0.0,42,0.00,,,0.00,WUHU21623XXSP,2013-05-20 16:27:00,
2013-05-20 09:32:00,52.3,29.3,30.22,NW,315,0.0,0.0,41,0.00,,,0.00,WUHU21623XXSP,2013-05-20 16:32:00,
2013-05-20 09:37:00,52.7,29.0,30.22,WNW,292,0.0,0.0,40,0.00,,,0.00,WUHU21623XXSP,2013-05-20 16:37:00,
2013-05-20 09:50:00,54.1,28.9,30.22,South,180,0.0,0.0,38,0.00,,,0.00,WUHU21623XXSP,2013-05-20 16:50:00,
2013-05-20 10:01:00,55.2,29.9,30.22,ESE,112,0.0,0.0,38,0.00,,,0.00,WUHU21623XXSP,2013-05-20 17:01:00,
2013-05-20 10:06:00,55.8,30.2,30.21,WNW,292,0.0,0.0,38,0.00,,,0.00,WUHU21623XXSP,2013-05-20 17:06:00,
2013-05-20 10:36:00,58.3,31.2,30.20,SE,135,0.0,0.0,36,0.00,,,0.00,WUHU21623XXSP,2013-05-20 17:36:00,
2013-05-20 10:41:00,58.8,31.7,30.20,NNE,22,0.0,0.0,35,0.00,,,0.00,WUHU21623XXSP,2013-05-20 17:41:00,
2013-05-20 10:48:00,59.4,30.8,30.21,SSE,157,0.0,0.0,34,0.00,,,0.00,WUHU21623XXSP,2013-05-20 17:48:00,
2013-05-20 11:05:00,61.2,30.7,30.20,NE,45,0.0,0.0,32,0.00,,,0.00,WUHU21623XXSP,2013-05-20 18:05:00,
2013-05-20 11:14:00,61.5,31.2,30.20,West,270,0.0,0.0,32,0.00,,,0.00,WUHU21623XXSP,2013-05-20 18:14:00,
2013-05-20 11:19:00,62.1,31.7,30.20,SSE,157,0.0,0.0,32,0.00,,,0.00,WUHU21623XXSP,2013-05-20 18:19:00,
2013-05-20 11:25:00,62.4,32.0,30.20,NE,45,0.0,0.0,32,0.00,,,0.00,WUHU21623XXSP,2013-05-20 18:25:00,
2013-05-20 11:33:00,63.1,32.7,30.20,SSW,202,0.0,0.0,32,0.00,,,0.00,WUHU21623XXSP,2013-05-20 18:33:00,
2013-05-20 11:50:00,64.2,32.9,30.20,WSW,247,0.0,0.0,31,0.00,,,0.00,WUHU21623XXSP,2013-05-20 18:50:00,
2013-05-20 12:12:00,65.5,31.3,30.19,WNW,292,0.9,0.9,28,0.00,,,0.00,WUHU21623XXSP,2013-05-20 19:12:00,
2013-05-20 12:17:00,65.5,31.3,30.19,WNW,292,0.9,0.9,28,0.00,,,0.00,WUHU21623XXSP,2013-05-20 19:17:00,
2013-05-20 12:22:00,66.4,31.1,30.19,WNW,292,0.7,2.0,27,0.00,,,0.00,WUHU21623XXSP,2013-05-20 19:22:00,
2013-05-20 12:27:00,66.7,30.4,30.19,WNW,292,0.7,2.0,26,0.00,,,0.00,WUHU21623XXSP,2013-05-20 19:27:00,
2013-05-20 12:42:00,67.6,31.2,30.18,WNW,292,0.0,0.0,26,0.00,,,0.00,WUHU21623XXSP,2013-05-20 19:42:00,
2013-05-20 12:47:00,67.6,31.2,30.18,WNW,292,0.0,0.0,26,0.00,,,0.00,WUHU21623XXSP,2013-05-20 19:47:00,
2013-05-20 13:03:00,68.7,33.1,30.17,ESE,112,0.0,0.0,27,0.00,,,0.00,WUHU21623XXSP,2013-05-20 20:03:00,
2013-05-20 13:08:00,69.1,33.2,30.17,West,270,0.0,0.0,26,0.00,,,0.00,WUHU21623XXSP,2013-05-20 20:08:00,
2013-05-20 13:13:00,69.3,31.5,30.17,SSE,157,0.0,0.0,25,0.00,,,0.00,WUHU21623XXSP,2013-05-20 20:13:00,
2013-05-20 13:26:00,70.3,30.3,30.16,NW,315,2.5,2.5,23,0.00,,,0.00,WUHU21623XXSP,2013-05-20 20:26:00,
2013-05-20 13:33:00,70.9,30.9,30.16,ENE,67,0.0,2.5,23,0.00,,,0.00,WUHU21623XXSP,2013-05-20 20:33:00,
2013-05-20 13:38:00,71.2,31.2,30.17,SSE,157,0.0,0.0,24,0.00,,,0.00,WUHU21623XXSP,2013-05-20 20:38:00,
2013-05-20 14:18:00,74.5,32.9,30.15,WNW,292,1.6,1.6,21,0.00,,,0.00,WUHU21623XXSP,2013-05-20 21:18:00,
2013-05-20 14:26:00,74.3,31.7,30.15,West,270,3.6,3.6,21,0.00,,,0.00,WUHU21623XXSP,2013-05-20 21:26:00,
2013-05-20 14:35:00,74.1,31.6,30.15,WNW,292,2.0,3.6,21,0.00,,,0.00,WUHU21623XXSP,2013-05-20 21:35:00,
2013-05-20 14:40:00,74.1,31.6,30.14,NW,315,1.1,2.0,21,0.00,,,0.00,WUHU21623XXSP,2013-05-20 21:40:00,
2013-05-20 14:46:00,74.1,31.6,30.14,NW,315,6.3,6.3,20,0.00,,,0.00,WUHU21623XXSP,2013-05-20 21:46:00,
2013-05-20 14:51:00,74.3,29.1,30.14,WNW,292,4.3,6.3,19,0.00,,,0.00,WUHU21623XXSP,2013-05-20 21:51:00,
2013-05-20 14:56:00,74.3,31.7,30.13,WSW,247,0.0,4.3,21,0.00,,,0.00,WUHU21623XXSP,2013-05-20 21:56:00,
2013-05-20 15:05:00,74.7,31.0,30.13,WNW,292,4.7,4.7,20,0.00,,,0.00,WUHU21623XXSP,2013-05-20 22:05:00,
2013-05-20 15:13:00,75.0,31.3,30.13,North,0,3.6,4.7,20,0.00,,,0.00,WUHU21623XXSP,2013-05-20 22:13:00,
2013-05-20 15:18:00,75.0,28.0,30.12,NE,45,0.0,3.6,18,0.00,,,0.00,WUHU21623XXSP,2013-05-20 22:18:00,
2013-05-20 15:23:00,75.0,28.0,30.12,West,270,0.9,0.9,18,0.00,,,0.00,WUHU21623XXSP,2013-05-20 22:23:00,
2013-05-20 15:28:00,75.4,28.1,30.12,West,270,0.0,0.9,18,0.00,,,0.00,WUHU21623XXSP,2013-05-20 22:28:00,
2013-05-20 15:34:00,75.4,28.3,30.12,North,0,0.0,0.0,18,0.00,,,0.00,WUHU21623XXSP,2013-05-20 22:34:00,
2013-05-20 15:41:00,75.7,28.6,30.12,NNW,337,5.8,5.8,18,0.00,,,0.00,WUHU21623XXSP,2013-05-20 22:41:00,
2013-05-20 15:48:00,75.9,28.7,30.12,West,270,0.0,5.8,18,0.00,,,0.00,WUHU21623XXSP,2013-05-20 22:48:00,
2013-05-20 15:53:00,76.1,28.9,30.11,WNW,292,0.0,0.0,18,0.00,,,0.00,WUHU21623XXSP,2013-05-20 22:53:00,
2013-05-20 16:00:00,76.3,29.0,30.11,WNW,292,0.0,0.0,18,0.00,,,0.00,WUHU21623XXSP,2013-05-20 23:00:00,
2013-05-20 16:07:00,76.6,27.6,30.11,NW,315,5.1,5.1,17,0.00,,,0.00,WUHU21623XXSP,2013-05-20 23:07:00,
2013-05-20 16:12:00,76.6,27.6,30.10,WSW,247,0.0,5.1,17,0.00,,,0.00,WUHU21623XXSP,2013-05-20 23:12:00,
2013-05-20 16:17:00,76.6,29.3,30.10,NW,315,0.0,0.0,18,0.00,,,0.00,WUHU21623XXSP,2013-05-20 23:17:00,
2013-05-20 16:22:00,76.8,29.4,30.10,WNW,292,3.6,3.6,18,0.00,,,0.00,WUHU21623XXSP,2013-05-20 23:22:00,
2013-05-20 16:28:00,76.8,29.4,30.09,WNW,292,1.3,3.6,18,0.00,,,0.00,WUHU21623XXSP,2013-05-20 23:28:00,
2013-05-20 16:33:00,76.8,29.4,30.09,SW,225,0.0,1.3,18,0.00,,,0.00,WUHU21623XXSP,2013-05-20 23:33:00,
2013-05-20 16:38:00,76.8,31.1,30.09,SE,135,0.7,0.7,19,0.00,,,0.00,WUHU21623XXSP,2013-05-20 23:38:00,
2013-05-20 16:43:00,76.8,29.4,30.09,SW,225,0.0,0.7,18,0.00,,,0.00,WUHU21623XXSP,2013-05-20 23:43:00,
2013-05-20 16:48:00,76.8,32.8,30.09,WNW,292,0.0,0.0,20,0.00,,,0.00,WUHU21623XXSP,2013-05-20 23:48:00,
2013-05-20 16:53:00,76.8,31.1,30.09,West,270,0.0,0.0,19,0.00,,,0.00,WUHU21623XXSP,2013-05-20 23:53:00,
2013-05-20 17:02:00,76.8,27.8,30.08,NNW,337,0.0,0.0,17,0.00,,,0.00,WUHU21623XXSP,2013-05-21 00:02:00,
2013-05-20 17:07:00,76.6,27.6,30.08,NNW,337,1.3,1.3,17,0.00,,,0.00,WUHU21623XXSP,2013-05-21 00:07:00,
2013-05-20 17:12:00,76.6,29.3,30.08,West,270,0.0,1.3,18,0.00,,,0.00,WUHU21623XXSP,2013-05-21 00:12:00,
2013-05-20 17:19:00,76.3,29.0,30.09,WNW,292,1.6,1.6,18,0.00,,,0.00,WUHU21623XXSP,2013-05-21 00:19:00,
2013-05-20 17:28:00,76.5,29.2,30.08,NW,315,0.0,1.6,18,0.00,,,0.00,WUHU21623XXSP,2013-05-21 00:28:00,
2013-05-20 17:34:00,76.3,29.0,30.08,NNW,337,0.0,0.0,18,0.00,,,0.00,WUHU21623XXSP,2013-05-21 00:34:00,
2013-05-20 17:39:00,76.1,28.9,30.08,NNW,337,0.0,0.0,18,0.00,,,0.00,WUHU21623XXSP,2013-05-21 00:39:00,
2013-05-20 17:47:00,75.9,32.0,30.07,WNW,292,1.8,1.8,19,0.00,,,0.00,WUHU21623XXSP,2013-05-21 00:47:00,
2013-05-20 17:52:00,75.9,28.7,30.08,NNW,337,2.9,2.9,18,0.00,,,0.00,WUHU21623XXSP,2013-05-21 00:52:00,
2013-05-20 18:02:00,75.9,28.7,30.07,North,0,0.0,0.0,18,0.00,,,0.00,WUHU21623XXSP,2013-05-21 01:02:00,
2013-05-20 18:07:00,75.9,28.7,30.07,WNW,292,2.9,2.9,18,0.00,,,0.00,WUHU21623XXSP,2013-05-21 01:07:00,
2013-05-20 18:12:00,75.9,28.7,30.07,WNW,292,5.1,5.1,18,0.00,,,0.00,WUHU21623XXSP,2013-05-21 01:12:00,
2013-05-20 18:17:00,75.9,28.7,30.07,WNW,292,5.1,5.1,18,0.00,,,0.00,WUHU21623XXSP,2013-05-21 01:17:00,
2013-05-20 18:28:00,75.9,30.4,30.07,NW,315,0.0,0.0,19,0.00,,,0.00,WUHU21623XXSP,2013-05-21 01:28:00,
2013-05-20 18:38:00,75.6,31.7,30.07,South,180,0.0,0.0,21,0.00,,,0.00,WUHU21623XXSP,2013-05-21 01:38:00,
2013-05-20 18:43:00,75.4,32.6,30.07,SE,135,0.0,0.0,21,0.00,,,0.00,WUHU21623XXSP,2013-05-21 01:43:00,
2013-05-20 18:48:00,75.4,32.6,30.07,SE,135,0.0,0.0,21,0.00,,,0.00,WUHU21623XXSP,2013-05-21 01:48:00,
2013-05-20 18:53:00,75.0,33.4,30.07,NNW,337,0.0,0.0,22,0.00,,,0.00,WUHU21623XXSP,2013-05-21 01:53:00,
2013-05-20 18:58:00,75.0,33.4,30.07,SW,225,0.0,0.0,22,0.00,,,0.00,WUHU21623XXSP,2013-05-21 01:58:00,
2013-05-20 19:03:00,75.0,33.4,30.07,West,270,0.0,0.0,22,0.00,,,0.00,WUHU21623XXSP,2013-05-21 02:03:00,
2013-05-20 19:08:00,75.0,34.4,30.07,ESE,112,0.0,0.0,23,0.00,,,0.00,WUHU21623XXSP,2013-05-21 02:08:00,
2013-05-20 19:14:00,74.8,34.2,30.07,NNW,337,0.0,0.0,23,0.00,,,0.00,WUHU21623XXSP,2013-05-21 02:14:00,
2013-05-20 19:19:00,74.8,34.2,30.08,West,270,0.0,0.0,23,0.00,,,0.00,WUHU21623XXSP,2013-05-21 02:19:00,
2013-05-20 19:24:00,74.8,34.2,30.07,WNW,292,2.5,2.5,23,0.00,,,0.00,WUHU21623XXSP,2013-05-21 02:24:00,
2013-05-20 19:29:00,74.7,34.1,30.08,NNW,337,3.8,3.8,23,0.00,,,0.00,WUHU21623XXSP,2013-05-21 02:29:00,
2013-05-20 19:34:00,74.1,33.6,30.08,NE,45,0.0,3.8,23,0.00,,,0.00,WUHU21623XXSP,2013-05-21 02:34:00,
2013-05-20 19:39:00,73.9,34.5,30.08,WNW,292,0.0,0.0,24,0.00,,,0.00,WUHU21623XXSP,2013-05-21 02:39:00,
2013-05-20 19:47:00,73.2,33.9,30.08,NW,315,0.0,0.0,24,0.00,,,0.00,WUHU21623XXSP,2013-05-21 02:47:00,
2013-05-20 19:52:00,72.9,33.7,30.08,WNW,292,7.6,7.6,24,0.00,,,0.00,WUHU21623XXSP,2013-05-21 02:52:00,
2013-05-20 19:57:00,72.3,33.1,30.08,NW,315,4.9,7.6,24,0.00,,,0.00,WUHU21623XXSP,2013-05-21 02:57:00,
2013-05-20 20:02:00,71.8,32.6,30.08,West,270,0.0,4.9,24,0.00,,,0.00,WUHU21623XXSP,2013-05-21 03:02:00,
2013-05-20 20:08:00,71.2,33.2,30.09,WNW,292,0.0,0.0,25,0.00,,,0.00,WUHU21623XXSP,2013-05-21 03:08:00,
2013-05-20 20:13:00,70.7,32.9,30.09,West,270,1.6,1.6,25,0.00,,,0.00,WUHU21623XXSP,2013-05-21 03:13:00,
2013-05-20 20:18:00,70.5,32.6,30.09,NW,315,0.0,1.6,24,0.00,,,0.00,WUHU21623XXSP,2013-05-21 03:18:00,
2013-05-20 20:23:00,69.8,32.0,30.08,SW,225,0.0,3.6,25,0.00,,,0.00,WUHU21623XXSP,2013-05-21 03:23:00,
2013-05-20 20:28:00,69.4,31.8,30.09,SSE,157,0.0,3.6,25,0.00,,,0.00,WUHU21623XXSP,2013-05-21 03:28:00,
2013-05-20 20:33:00,68.7,31.2,30.08,North,0,0.0,0.0,25,0.00,,,0.00,WUHU21623XXSP,2013-05-21 03:33:00,
2013-05-20 20:38:00,68.5,30.9,30.08,NW,315,0.0,0.0,25,0.00,,,0.00,WUHU21623XXSP,2013-05-21 03:38:00,
2013-05-20 20:43:00,68.2,30.6,30.08,NNW,337,0.0,0.0,25,0.00,,,0.00,WUHU21623XXSP,2013-05-21 03:43:00,
2013-05-20 20:48:00,67.8,30.3,30.08,NW,315,0.0,0.0,25,0.00,,,0.00,WUHU21623XXSP,2013-05-21 03:48:00,
2013-05-20 20:54:00,67.6,30.2,30.08,NW,315,0.0,0.0,25,0.00,,,0.00,WUHU21623XXSP,2013-05-21 03:54:00,
2013-05-20 20:59:00,67.3,29.9,30.08,South,180,0.0,0.0,26,0.00,,,0.00,WUHU21623XXSP,2013-05-21 03:59:00,
2013-05-20 21:01:00,67.3,29.9,30.08,South,180,0.0,0.0,26,0.00,,,0.00,WUHU21623XXSP,2013-05-21 04:01:00,
2013-05-20 21:04:00,66.7,30.4,30.08,North,0,0.0,0.0,26,0.00,,,0.00,WUHU21623XXSP,2013-05-21 04:04:00,
2013-05-20 21:09:00,66.6,30.2,30.08,North,0,0.0,0.0,26,0.00,,,0.00,WUHU21623XXSP,2013-05-21 04:09:00,
2013-05-20 21:17:00,66.0,29.8,30.08,NNE,22,0.0,0.0,26,0.00,,,0.00,WUHU21623XXSP,2013-05-21 04:17:00,
2013-05-20 21:22:00,65.8,29.6,30.08,ENE,67,0.0,0.0,26,0.00,,,0.00,WUHU21623XXSP,2013-05-21 04:22:00,
2013-05-20 21:27:00,65.1,30.0,30.09,ENE,67,0.0,0.0,27,0.00,,,0.00,WUHU21623XXSP,2013-05-21 04:27:00,
2013-05-20 21:32:00,64.9,29.9,30.09,NNE,22,0.0,0.0,27,0.00,,,0.00,WUHU21623XXSP,2013-05-21 04:32:00,
2013-05-20 21:40:00,64.2,29.2,30.09,ENE,67,0.0,0.0,27,0.00,,,0.00,WUHU21623XXSP,2013-05-21 04:40:00,
2013-05-20 21:45:00,63.9,29.1,30.09,ENE,67,0.0,0.0,27,0.00,,,0.00,WUHU21623XXSP,2013-05-21 04:45:00,
2013-05-20 21:50:00,63.3,28.4,30.10,ENE,67,0.0,0.0,27,0.00,,,0.00,WUHU21623XXSP,2013-05-21 04:50:00,
2013-05-20 21:55:00,63.1,28.3,30.09,ESE,112,0.0,0.0,27,0.00,,,0.00,WUHU21623XXSP,2013-05-21 04:55:00,
2013-05-20 22:00:00,62.4,28.6,30.09,NE,45,0.0,0.0,28,0.00,,,0.00,WUHU21623XXSP,2013-05-21 05:00:00,
2013-05-20 22:06:00,61.9,28.1,30.09,NE,45,0.0,0.0,28,0.00,,,0.00,WUHU21623XXSP,2013-05-21 05:06:00,
2013-05-20 22:11:00,61.5,28.0,30.09,NE,45,0.0,0.0,28,0.00,,,0.00,WUHU21623XXSP,2013-05-21 05:11:00,
2013-05-20 22:19:00,60.6,27.1,30.09,North,0,0.0,0.0,28,0.00,,,0.00,WUHU21623XXSP,2013-05-21 05:19:00,
2013-05-20 22:27:00,60.4,28.8,30.09,NNW,337,1.6,1.6,30,0.00,,,0.00,WUHU21623XXSP,2013-05-21 05:27:00,
2013-05-20 22:34:00,60.4,29.5,30.10,NW,315,0.0,1.6,31,0.00,,,0.00,WUHU21623XXSP,2013-05-21 05:34:00,
2013-05-20 22:40:00,60.4,29.5,30.09,NW,315,0.0,0.0,31,0.00,,,0.00,WUHU21623XXSP,2013-05-21 05:40:00,
2013-05-20 22:45:00,60.4,29.5,30.10,WNW,292,0.0,0.0,31,0.00,,,0.00,WUHU21623XXSP,2013-05-21 05:45:00,
2013-05-20 22:51:00,60.4,29.5,30.09,SSE,157,0.0,0.0,31,0.00,,,0.00,WUHU21623XXSP,2013-05-21 05:51:00,
2013-05-20 22:56:00,60.1,29.5,30.09,SSE,157,0.0,0.0,30,0.00,,,0.00,WUHU21623XXSP,2013-05-21 05:56:00,
2013-05-20 23:01:00,60.1,28.5,30.09,East,90,0.0,0.0,31,0.00,,,0.00,WUHU21623XXSP,2013-05-21 06:01:00,
2013-05-20 23:06:00,59.7,29.0,30.09,SE,135,0.0,0.0,31,0.00,,,0.00,WUHU21623XXSP,2013-05-21 06:06:00,
2013-05-20 23:11:00,59.5,28.8,30.09,ESE,112,0.0,0.0,31,0.00,,,0.00,WUHU21623XXSP,2013-05-21 06:11:00,
2013-05-20 23:16:00,58.6,28.2,30.09,ENE,67,0.0,0.0,31,0.00,,,0.00,WUHU21623XXSP,2013-05-21 06:16:00,
2013-05-20 23:21:00,58.1,27.6,30.09,SE,135,0.0,0.0,31,0.00,,,0.00,WUHU21623XXSP,2013-05-21 06:21:00,
2013-05-20 23:26:00,57.7,27.2,30.09,ENE,67,0.0,0.0,31,0.00,,,0.00,WUHU21623XXSP,2013-05-21 06:26:00,
2013-05-20 23:31:00,57.4,26.9,30.09,ENE,67,0.0,0.0,31,0.00,,,0.00,WUHU21623XXSP,2013-05-21 06:31:00,
2013-05-20 23:36:00,56.8,27.1,30.08,SE,135,0.0,0.0,32,0.00,,,0.00,WUHU21623XXSP,2013-05-21 06:36:00,
2013-05-20 23:41:00,56.8,27.1,30.08,SE,135,0.0,0.0,32,0.00,,,0.00,WUHU21623XXSP,2013-05-21 06:41:00,
2013-05-20 23:47:00,56.1,26.5,30.08,East,90,0.0,0.0,32,0.00,,,0.00,WUHU21623XXSP,2013-05-21 06:47:00,
2013-05-20 23:52:00,55.9,26.3,30.07,East,90,0.0,0.0,32,0.00,,,0.00,WUHU21623XXSP,2013-05-21 06:52:00,
2013-05-20 23:57:00,55.6,26.0,30.08,WNW,292,0.0,0.0,32,0.00,,,0.00,WUHU21623XXSP,2013-05-21 06:57:00,